Weather History for Ardabil, Iran

Change the Weather History Date:

Tuesday, February 12, 2013

  Actual Average Record
Temperature  
Mean Temperature 44 °F -  
Max Temperature 57 °F - - ()
Min Temperature 30 °F - - ()
Degree Days  
Heating Degree Days 22    
Moisture  
Dew Point 33 °F    
Average Humidity 63    
Maximum Humidity 100    
Minimum Humidity 41    
Precipitation  
Precipitation 0.00 in - - ()
Sea Level Pressure  
Sea Level Pressure 29.86 in    
Wind  
Wind Speed 9 mph ()    
Max Wind Speed 28 mph    
Max Gust Speed -    
Visibility 6.2 miles    
Events Fog , Rain    
T = Trace of Precipitation, MM = Missing Value Source: Averaged Metar Reports

Daily Weather History Graph

Daily Weather History Graph

Search for Another Location

Airport:

Trip Planner

Search our weather history database for the weather conditions in past years. The results will help you decide how hot, cold, wet, or windy it might be!

Date:

Astronomy

Feb. 12, 2013 Rise Set
Actual Time 7:10 AM IRST 5:51 PM IRST
Civil Twilight 6:43 AM IRST 6:18 PM IRST
Nautical Twilight 6:12 AM IRST 6:49 PM IRST
Astronomical Twilight 5:41 AM IRST 7:20 PM IRST
Moon 7:57 AM IRST (2/12) 8:24 PM IRST (2/12)
Length of Visible Light 11h 35m
Length of Day
10h 40m
Waxing Crescent, 5% of the Moon is Illuminated
Feb 12
Waxing Crescent
Feb 18
First Quarter
Feb 25
Full
Mar 5
Last Quarter
Mar 11
New

Hourly Weather History & Observations

Time (IRST) Temp. Windchill Dew Point Humidity Pressure Visibility Wind Dir Wind Speed Gust Speed Precip Events Conditions
6:20 AM 41.0 °F 33.5 °F 30.2 °F 65% 29.86 in 6.2 mi South 13.8 mph - N/A   Scattered Clouds
7:20 AM 30.2 °F 23.4 °F 28.4 °F 93% 29.89 in 6.2 mi SSW 6.9 mph - N/A   Scattered Clouds
7:30 AM 30.2 °F 23.4 °F 28.4 °F 93% 29.89 in 6.2 mi SSW 6.9 mph - N/A   Scattered Clouds
8:20 AM 30.2 °F 25.4 °F 30.2 °F 100% 29.89 in 6.2 mi Variable 4.6 mph - N/A   Mostly Cloudy
8:30 AM 30.2 °F 25.4 °F 30.2 °F 100% 29.89 in 6.2 mi Variable 4.6 mph - N/A   Mostly Cloudy
9:20 AM 42.8 °F 40.1 °F 33.8 °F 70% 29.89 in 6.2 mi Variable 4.6 mph - N/A   Mostly Cloudy
9:30 AM 42.8 °F 40.1 °F 33.8 °F 70% 29.89 in 6.2 mi Variable 4.6 mph - N/A   Mostly Cloudy
10:20 AM 42.8 °F 40.1 °F 35.6 °F 76% 29.89 in - Variable 4.6 mph - N/A   Mostly Cloudy
10:30 AM 42.8 °F 40.1 °F 35.6 °F 76% 29.89 in 6.2 mi Variable 4.6 mph - N/A   Mostly Cloudy
11:00 AM 42.8 °F 40.1 °F 35.6 °F 76% 29.89 in 6.2 mi Variable 4.6 mph - N/A   Mostly Cloudy
11:20 AM 42.8 °F 40.1 °F 35.6 °F 76% 29.89 in 6.2 mi Variable 4.6 mph - N/A   Mostly Cloudy
11:30 AM 44.6 °F 40.7 °F 33.8 °F 66% 29.89 in 6.2 mi WNW 6.9 mph - N/A   Mostly Cloudy
12:20 PM 50.0 °F - 35.6 °F 58% 29.89 in 6.2 mi Variable 4.6 mph - N/A   Overcast
12:30 PM 50.0 °F - 35.6 °F 58% 29.89 in 6.2 mi Variable 4.6 mph - N/A   Overcast
1:20 PM 57.2 °F - 33.8 °F 41% 29.83 in 6.2 mi SW 11.5 mph - N/A Fog Overcast
1:30 PM 57.2 °F - 33.8 °F 41% 29.83 in 6.2 mi SW 11.5 mph - N/A   Overcast
2:20 PM 57.2 °F - 33.8 °F 41% 29.83 in 6.2 mi SSW 23.0 mph - N/A   Mostly Cloudy
2:30 PM 57.2 °F - 33.8 °F 41% 29.83 in 6.2 mi SSW 23.0 mph - N/A   Mostly Cloudy
3:20 PM 51.8 °F - 35.6 °F 54% 29.83 in 6.2 mi SSE 27.6 mph - N/A   Overcast
3:30 PM 51.8 °F - 35.6 °F 54% 29.83 in 6.2 mi SSE 27.6 mph - N/A   Overcast
4:00 PM 51.8 °F - 35.6 °F 54% 29.83 in 6.2 mi SSE 27.6 mph - N/A   Overcast
4:20 PM 51.8 °F - 33.8 °F 50% 29.83 in 6.2 mi South 13.8 mph - N/A   Mostly Cloudy
4:30 PM 51.8 °F - 33.8 °F 50% 29.83 in 6.2 mi South 13.8 mph - N/A Fog Mostly Cloudy
5:00 PM 51.8 °F - 33.8 °F 50% 29.83 in 6.2 mi South 13.8 mph - N/A Fog Mostly Cloudy
5:20 PM 53.6 °F - 32.0 °F 44% 29.83 in 6.2 mi ESE 11.5 mph - N/A Fog Mostly Cloudy
5:30 PM 53.6 °F - 32.0 °F 44% 29.83 in 6.2 mi ESE 11.5 mph - N/A Fog Mostly Cloudy
6:20 PM 46.4 °F 41.1 °F 33.8 °F 62% 29.86 in 6.2 mi ESE 11.5 mph - N/A Rain Light Rain Showers